TimePDT,TemperatureF,Dew PointF,Humidity,Sea Level PressureIn,VisibilityMPH,Wind Direction,Wind SpeedMPH,Gust SpeedMPH,PrecipitationIn,Events,Conditions,WindDirDegrees,DateUTC
12:15 AM,48.2,44.6,87,30.12,10.0,North,9.2,-,N/A,,Clear,360,2012-10-03 07:15:00
12:35 AM,46.4,44.6,93,30.12,10.0,North,8.1,-,N/A,,Clear,10,2012-10-03 07:35:00
12:55 AM,46.4,44.6,93,30.11,10.0,NNW,5.8,-,N/A,,Clear,330,2012-10-03 07:55:00
1:15 AM,46.4,42.8,87,30.12,10.0,NNE,3.5,-,N/A,,Clear,20,2012-10-03 08:15:00
1:35 AM,46.4,42.8,87,30.12,10.0,NNW,4.6,-,N/A,,Clear,340,2012-10-03 08:35:00
1:55 AM,46.4,42.8,87,30.12,10.0,North,10.4,-,N/A,,Clear,360,2012-10-03 08:55:00
2:15 AM,46.4,42.8,87,30.12,10.0,North,6.9,-,N/A,,Clear,360,2012-10-03 09:15:00
2:35 AM,46.4,42.8,87,30.11,10.0,North,5.8,-,N/A,,Clear,360,2012-10-03 09:35:00
2:55 AM,46.4,42.8,87,30.11,10.0,North,5.8,-,N/A,,Clear,360,2012-10-03 09:55:00
3:15 AM,44.6,44.6,100,30.11,10.0,Calm,Calm,-,N/A,,Clear,0,2012-10-03 10:15:00
3:35 AM,44.6,42.8,93,30.10,10.0,Calm,Calm,-,N/A,,Clear,0,2012-10-03 10:35:00
3:55 AM,42.8,42.8,100,30.10,10.0,Calm,Calm,-,N/A,,Clear,0,2012-10-03 10:55:00
4:15 AM,42.8,42.8,100,30.10,10.0,Calm,Calm,-,N/A,,Clear,0,2012-10-03 11:15:00
4:35 AM,42.8,42.8,100,30.10,10.0,Calm,Calm,-,N/A,,Clear,0,2012-10-03 11:35:00
4:55 AM,44.6,44.6,100,30.09,10.0,Calm,Calm,-,N/A,,Clear,0,2012-10-03 11:55:00
5:15 AM,44.6,42.8,93,30.09,10.0,North,3.5,-,N/A,,Clear,360,2012-10-03 12:15:00
5:35 AM,44.6,44.6,100,30.09,10.0,NNE,3.5,-,N/A,,Clear,20,2012-10-03 12:35:00
5:55 AM,44.6,44.6,100,30.09,10.0,North,3.5,-,N/A,,Clear,360,2012-10-03 12:55:00
6:15 AM,44.6,44.6,100,30.09,10.0,NNE,4.6,-,N/A,,Clear,30,2012-10-03 13:15:00
6:35 AM,42.8,42.8,100,30.08,5.0,Calm,Calm,-,N/A,,Clear,0,2012-10-03 13:35:00
6:55 AM,44.6,44.6,100,30.08,10.0,NNE,4.6,-,N/A,,Clear,30,2012-10-03 13:55:00
7:15 AM,44.6,44.6,100,30.08,10.0,NNE,3.5,-,N/A,,Clear,20,2012-10-03 14:15:00
7:35 AM,44.6,44.6,100,30.08,10.0,North,4.6,-,N/A,,Clear,10,2012-10-03 14:35:00
8:15 AM,46.4,46.4,100,30.08,10.0,Calm,Calm,-,N/A,,Clear,0,2012-10-03 15:15:00
8:35 AM,48.2,46.4,93,30.08,10.0,NNE,5.8,-,N/A,,Clear,20,2012-10-03 15:35:00
8:55 AM,50.0,46.4,87,30.08,10.0,Calm,Calm,-,N/A,,Clear,0,2012-10-03 15:55:00
9:15 AM,51.8,46.4,82,30.07,10.0,NNE,3.5,-,N/A,,Clear,20,2012-10-03 16:15:00
9:35 AM,53.6,48.2,82,30.07,10.0,Calm,Calm,-,N/A,,Clear,0,2012-10-03 16:35:00
9:55 AM,55.4,46.4,72,30.07,10.0,Calm,Calm,-,N/A,,Clear,0,2012-10-03 16:55:00
10:15 AM,57.2,46.4,67,30.07,10.0,Calm,Calm,-,N/A,,Clear,0,2012-10-03 17:15:00
10:55 AM,64.4,42.8,45,30.06,10.0,East,3.5,-,N/A,,Clear,100,2012-10-03 17:55:00
11:15 AM,64.4,42.8,45,30.05,10.0,Calm,Calm,-,N/A,,Clear,0,2012-10-03 18:15:00
11:35 AM,66.2,39.2,37,30.05,10.0,Calm,Calm,-,N/A,,Clear,0,2012-10-03 18:35:00
11:55 AM,68.0,39.2,35,30.04,10.0,SE,3.5,-,N/A,,Clear,130,2012-10-03 18:55:00
12:15 PM,66.2,44.6,46,30.04,10.0,NNW,6.9,-,N/A,,Clear,330,2012-10-03 19:15:00
12:35 PM,66.2,42.8,43,30.04,10.0,North,5.8,-,N/A,,Clear,350,2012-10-03 19:35:00
12:55 PM,66.2,44.6,46,30.03,10.0,NNW,11.5,-,N/A,,Clear,340,2012-10-03 19:55:00
1:15 PM,66.2,44.6,46,30.02,10.0,North,12.7,-,N/A,,Clear,350,2012-10-03 20:15:00
1:35 PM,66.2,44.6,46,30.02,10.0,NNW,13.8,-,N/A,,Clear,330,2012-10-03 20:35:00
1:55 PM,64.4,44.6,49,30.01,10.0,NNW,12.7,-,N/A,,Clear,330,2012-10-03 20:55:00
2:15 PM,66.2,42.8,43,30.00,10.0,NNW,16.1,-,N/A,,Clear,340,2012-10-03 21:15:00
2:35 PM,64.4,42.8,45,29.99,10.0,North,19.6,-,N/A,,Clear,350,2012-10-03 21:35:00
2:55 PM,64.4,42.8,45,29.99,10.0,NNW,16.1,-,N/A,,Clear,340,2012-10-03 21:55:00
3:15 PM,64.4,42.8,45,29.99,10.0,North,18.4,23.0,N/A,,Clear,350,2012-10-03 22:15:00
3:55 PM,62.6,42.8,48,29.99,10.0,North,20.7,-,N/A,,Clear,350,2012-10-03 22:55:00
4:15 PM,62.6,42.8,48,29.98,10.0,North,21.9,26.5,N/A,,Clear,350,2012-10-03 23:15:00
4:35 PM,62.6,42.8,48,29.98,10.0,North,20.7,-,N/A,,Clear,350,2012-10-03 23:35:00
4:55 PM,62.6,42.8,48,29.98,10.0,North,15.0,-,N/A,,Clear,350,2012-10-03 23:55:00
5:15 PM,62.6,44.6,52,29.98,10.0,North,16.1,-,N/A,,Clear,350,2012-10-04 00:15:00
5:35 PM,60.8,44.6,55,29.98,10.0,NNW,16.1,-,N/A,,Clear,340,2012-10-04 00:35:00
5:55 PM,60.8,44.6,55,29.98,10.0,North,12.7,-,N/A,,Clear,350,2012-10-04 00:55:00
6:15 PM,59.0,44.6,59,29.98,10.0,North,10.4,-,N/A,,Clear,350,2012-10-04 01:15:00
6:35 PM,57.2,44.6,63,29.98,10.0,North,8.1,-,N/A,,Clear,350,2012-10-04 01:35:00
6:55 PM,55.4,46.4,72,29.98,9.0,North,6.9,-,N/A,,Clear,360,2012-10-04 01:55:00
7:15 PM,55.4,46.4,72,29.98,10.0,North,6.9,-,N/A,,Clear,360,2012-10-04 02:15:00
7:35 PM,55.4,46.4,72,29.98,10.0,North,4.6,-,N/A,,Clear,350,2012-10-04 02:35:00
7:55 PM,53.6,46.4,77,29.98,10.0,NNE,4.6,-,N/A,,Clear,20,2012-10-04 02:55:00
8:15 PM,53.6,46.4,77,29.98,8.0,Calm,Calm,-,N/A,,Clear,0,2012-10-04 03:15:00
8:35 PM,53.6,44.6,72,29.99,8.0,Calm,Calm,-,N/A,,Clear,0,2012-10-04 03:35:00
8:55 PM,53.6,44.6,72,29.99,8.0,NNW,3.5,-,N/A,,Clear,340,2012-10-04 03:55:00
9:15 PM,51.8,44.6,76,29.99,6.0,Calm,Calm,-,N/A,,Clear,0,2012-10-04 04:15:00
9:35 PM,51.8,44.6,76,30.00,4.0,NNE,4.6,-,N/A,,Clear,30,2012-10-04 04:35:00
9:55 PM,51.8,46.4,82,30.00,5.0,Calm,Calm,-,N/A,,Clear,0,2012-10-04 04:55:00
10:15 PM,50.0,46.4,87,30.00,9.0,Calm,Calm,-,N/A,,Clear,0,2012-10-04 05:15:00
10:35 PM,51.8,46.4,82,30.01,10.0,Calm,Calm,-,N/A,,Clear,0,2012-10-04 05:35:00
10:55 PM,53.6,42.8,67,30.01,10.0,NNE,5.8,-,N/A,,Clear,20,2012-10-04 05:55:00
11:15 PM,46.4,42.8,87,30.01,10.0,Calm,Calm,-,N/A,,Clear,0,2012-10-04 06:15:00
11:35 PM,44.6,42.8,93,30.01,10.0,Calm,Calm,-,N/A,,Clear,0,2012-10-04 06:35:00
11:55 PM,50.0,44.6,82,30.01,10.0,Calm,Calm,-,N/A,,Clear,0,2012-10-04 06:55:00